GW3570 Weather Reports


Display with metric or nautical units.
time (UTC)temp
F
wind
direction
speed
MPH
gust
MPH
rain 1hr
in
rain 24hr
in
rain mn
in
humidity
%
barometer
mb
20260901222132 101 208 1.0 1.0 0.00 0.00 0.00 32 1014.6
20260901221628 101 139 0.0 0.0 0.00 0.00 0.00 36 1014.6
20260901221123 102 137 1.0 1.0 0.00 0.00 0.00 33 1014.5
20260901220622 102 169 0.0 0.0 0.00 0.00 0.00 31 1014.7
20260901220121 102 154 3.0 5.0 0.00 0.00 0.00 32 1014.7
20260901215619 102 131 1.0 2.0 0.00 0.00 0.00 33 1014.7
20260901215114 102 149 2.0 2.0 0.00 0.00 0.00 35 1014.7
20260901214613 102 150 0.0 0.0 0.00 0.00 0.00 34 1014.8
20260901214112 101 162 0.0 0.0 0.00 0.00 0.00 32 1014.9
20260901213607 103 147 1.0 1.0 0.00 0.00 0.00 32 1014.8
20260901213102 103 301 1.0 2.0 0.00 0.00 0.00 30 1014.7
20260901212602 102 331 1.0 1.0 0.00 0.00 0.00 31 1014.8
20260901212058 102 142 0.0 1.0 0.00 0.00 0.00 34 1015.1
20260901211553 102 176 2.0 2.0 0.00 0.00 0.00 32 1015.3
20260901211050 101 220 1.0 1.0 0.00 0.00 0.00 33 1015.2
20260901210544 101 219 0.0 0.0 0.00 0.00 0.00 32 1015.3
20260901210041 103 224 0.0 1.0 0.00 0.00 0.00 31 1015.1
20260901205535 102 0 0.0 0.0 0.00 0.00 0.00 31 1015.2
20260901205030 100 168 0.0 0.0 0.00 0.00 0.00 33 1015.3
20260901204526 100 132 0.0 0.0 0.00 0.00 0.00 34 1015.3
20260901204020 103 140 3.0 3.0 0.00 0.00 0.00 33 1015.2
20260901203515 103 157 1.0 2.0 0.00 0.00 0.00 32 1015.6
20260901203011 103 180 2.0 2.0 0.00 0.00 0.00 31 1015.7
20260901202505 102 241 2.0 2.0 0.00 0.00 0.00 31 1015.7
20260901202001 103 216 2.0 2.0 0.00 0.00 0.00 31 1015.6
20260901201455 101 170 1.0 1.0 0.00 0.00 0.00 32 1015.5
20260901200950 100 148 2.0 2.0 0.00 0.00 0.00 34 1015.7
20260901200445 100 154 3.0 3.0 0.00 0.00 0.00 33 1015.9
20260901195944 98 181 1.0 2.0 0.00 0.00 0.00 36 1016.2
20260901195443 100 192 5.0 6.0 0.00 0.00 0.00 39 1015.8
20260901194938 101 218 2.0 2.0 0.00 0.00 0.00 36 1015.8
20260901194432 100 188 2.0 2.0 0.00 0.00 0.00 36 1016.0
20260901193929 102 198 1.0 1.0 0.00 0.00 0.00 32 1015.9
20260901193427 102 213 3.0 3.0 0.00 0.00 0.00 36 1016.0
20260901192922 103 150 3.0 3.0 0.00 0.00 0.00 35 1016.2
20260901192417 102 166 1.0 2.0 0.00 0.00 0.00 34 1016.4
20260901191913 103 307 2.0 2.0 0.00 0.00 0.00 32 1016.3
20260901191408 102 137 2.0 2.0 0.00 0.00 0.00 35 1016.2
20260901190904 100 207 2.0 2.0 0.00 0.00 0.00 34 1016.2
20260901190359 102 140 3.0 3.0 0.00 0.00 0.00 34 1016.3
20260901185857 101 203 1.0 1.0 0.00 0.00 0.00 33 1016.7
20260901185356 99 176 1.0 1.0 0.00 0.00 0.00 37 1016.4
20260901184852 99 162 1.0 1.0 0.00 0.00 0.00 38 1016.5
20260901184347 97 128 1.0 1.0 0.00 0.00 0.00 41 1016.8
20260901183842 98 111 0.0 1.0 0.00 0.00 0.00 38 1016.8
20260901183341 98 141 2.0 2.0 0.00 0.00 0.00 37 1016.9
20260901182837 100 63 3.0 3.0 0.00 0.00 0.00 35 1016.7
20260901182332 101 185 3.0 3.0 0.00 0.00 0.00 35 1016.6
20260901181827 102 227 1.0 2.0 0.00 0.00 0.00 34 1016.9
20260901181321 100 230 0.0 0.0 0.00 0.00 0.00 36 1016.9
20260901180815 101 294 2.0 2.0 0.00 0.00 0.00 35 1017.0
20260901180314 100 159 2.0 2.0 0.00 0.00 0.00 36 1017.0
20260901175814 99 207 3.0 3.0 0.00 0.00 0.00 37 1017.4
20260901175308 98 229 2.0 2.0 0.00 0.00 0.00 38 1017.3
20260901174803 97 260 4.0 6.0 0.00 0.00 0.00 38 1017.6
20260901174259 98 254 2.0 2.0 0.00 0.00 0.00 37 1017.8
20260901173754 98 190 3.0 3.0 0.00 0.00 0.00 41 1017.6
20260901173249 98 204 2.0 3.0 0.00 0.00 0.00 39 1017.6
20260901172746 97 240 2.0 2.0 0.00 0.00 0.00 41 1017.8
20260901172244 97 212 3.0 5.0 0.00 0.00 0.00 40 1017.7
20260901171743 98 184 3.0 5.0 0.00 0.00 0.00 40 1017.7
20260901171242 97 192 2.0 2.0 0.00 0.00 0.00 40 1017.8
20260901170741 97 183 2.0 2.0 0.00 0.00 0.00 41 1017.8
20260901170236 96 252 2.0 2.0 0.00 0.00 0.00 40 1018.1
20260901165734 95 197 4.0 6.0 0.00 0.00 0.00 41 1018.1
20260901165229 95 197 3.0 3.0 0.00 0.00 0.00 41 1017.9
20260901164726 95 242 4.0 5.0 0.00 0.00 0.00 43 1018.3
20260901164221 95 285 5.0 7.0 0.00 0.00 0.00 43 1018.1
20260901163716 95 244 3.0 3.0 0.00 0.00 0.00 46 1018.1
20260901163215 95 176 2.0 2.0 0.00 0.00 0.00 47 1018.1
20260901162710 94 194 3.0 3.0 0.00 0.00 0.00 49 1018.3
20260901162210 94 211 4.0 5.0 0.00 0.00 0.00 50 1018.4
20260901161709 95 193 2.0 2.0 0.00 0.00 0.00 47 1018.3
20260901161203 94 171 3.0 3.0 0.00 0.00 0.00 48 1018.1
20260901160700 93 250 4.0 5.0 0.00 0.00 0.00 48 1018.5
20260901160155 93 170 3.0 3.0 0.00 0.00 0.00 49 1018.4
20260901155653 92 171 2.0 2.0 0.00 0.00 0.00 50 1018.4
20260901155149 93 249 3.0 5.0 0.00 0.00 0.00 51 1018.2
20260901154644 92 196 3.0 3.0 0.00 0.00 0.00 52 1018.5
20260901154138 91 180 2.0 2.0 0.00 0.00 0.00 53 1018.4
20260901153634 91 197 3.0 3.0 0.00 0.00 0.00 54 1018.4
20260901153127 91 180 1.0 2.0 0.00 0.00 0.00 57 1018.6
20260901152623 91 196 2.0 2.0 0.00 0.00 0.00 58 1018.5
20260901152121 89 161 0.0 0.0 0.00 0.00 0.00 59 1018.3
20260901151617 89 201 0.0 0.0 0.00 0.00 0.00 59 1018.6
20260901151116 89 161 1.0 1.0 0.00 0.00 0.00 60 1018.4
20260901150615 89 149 1.0 1.0 0.00 0.00 0.00 61 1018.4
20260901150108 89 153 1.0 1.0 0.00 0.00 0.00 60 1018.4
20260901145607 88 179 0.0 0.0 0.00 0.00 0.00 61 1018.6
20260901145106 87 155 0.0 0.0 0.00 0.00 0.00 63 1018.6
20260901144602 86 151 0.0 0.0 0.00 0.00 0.00 62 1018.4
20260901144057 85 186 0.0 0.0 0.00 0.00 0.00 64 1018.5
20260901143552 84 171 0.0 0.0 0.00 0.00 0.00 69 1018.8
20260901143049 83 174 0.0 0.0 0.00 0.00 0.00 72 1018.7
20260901142544 82 178 0.0 0.0 0.00 0.00 0.00 73 1018.8
20260901142043 81 157 0.0 0.0 0.00 0.00 0.00 76 1018.7
20260901141538 81 187 1.0 1.0 0.00 0.00 0.00 77 1019.0
20260901141033 80 184 0.0 0.0 0.00 0.00 0.00 78 1018.7
20260901140531 80 178 0.0 0.0 0.00 0.00 0.00 79 1018.6
20260901140021 79 183 0.0 0.0 0.00 0.00 0.00 79 1019.0
20260901135520 78 201 0.0 0.0 0.00 0.00 0.00 80 1018.6
20260901135016 76 208 0.0 0.0 0.00 0.00 0.00 84 1018.9
20260901134512 76 210 0.0 0.0 0.00 0.00 0.00 84 1018.6
20260901134006 76 174 0.0 0.0 0.00 0.00 0.00 84 1018.9
20260901133505 76 218 0.0 0.0 0.00 0.00 0.00 83 1018.6
20260901133003 76 192 0.0 0.0 0.00 0.00 0.00 82 1018.8
20260901132457 75 171 0.0 0.0 0.00 0.00 0.00 81 1018.6
20260901131956 75 169 0.0 0.0 0.00 0.00 0.00 83 1018.8
20260901131451 74 170 0.0 0.0 0.00 0.00 0.00 83 1018.7
20260901130947 74 167 0.0 0.0 0.00 0.00 0.00 85 1018.7
20260901130441 74 167 0.0 0.0 0.00 0.00 0.00 85 1018.5
20260901125939 73 182 0.0 0.0 0.00 0.00 0.00 86 1018.7
20260901125438 73 158 0.0 0.0 0.00 0.00 0.00 86 1018.3
20260901124933 72 155 0.0 0.0 0.00 0.00 0.00 87 1018.4
20260901124428 72 158 0.0 0.0 0.00 0.00 0.00 88 1018.5
20260901123923 71 172 0.0 0.0 0.00 0.00 0.00 88 1018.5
20260901123418 71 180 0.0 0.0 0.00 0.00 0.00 88 1018.4
20260901122916 72 245 0.0 0.0 0.00 0.00 0.00 87 1018.4
20260901122411 72 153 0.0 0.0 0.00 0.00 0.00 87 1018.3
20260901121910 72 144 0.0 0.0 0.00 0.00 0.00 87 1018.2
20260901121405 71 158 0.0 0.0 0.00 0.00 0.00 87 1018.0
20260901120901 71 156 0.0 0.0 0.00 0.00 0.00 88 1018.2
20260901120355 71 155 0.0 0.0 0.00 0.00 0.00 88 1018.1
20260901115850 71 268 0.0 0.0 0.00 0.00 0.00 88 1017.9
20260901115345 71 184 0.0 0.0 0.00 0.00 0.00 87 1017.9
20260901114843 71 170 0.0 0.0 0.00 0.00 0.00 87 1018.0
20260901114338 71 307 0.0 0.0 0.00 0.00 0.00 87 1017.9
20260901113836 71 280 0.0 0.0 0.00 0.00 0.00 87 1017.6
20260901113335 72 229 0.0 0.0 0.00 0.00 0.00 86 1017.6
20260901112831 72 213 0.0 0.0 0.00 0.00 0.00 86 1017.6
20260901112330 72 184 0.0 0.0 0.00 0.00 0.00 87 1017.6
20260901111825 72 211 0.0 0.0 0.00 0.00 0.00 87 1017.3
20260901111324 72 199 0.0 0.0 0.00 0.00 0.00 87 1017.6
20260901110823 72 239 0.0 0.0 0.00 0.00 0.00 87 1017.5
20260901110319 72 200 0.0 0.0 0.00 0.00 0.00 87 1017.4
20260901105815 72 305 0.0 0.0 0.00 0.00 0.00 87 1017.2
20260901105314 73 79 0.0 0.0 0.00 0.00 0.00 87 1017.2
20260901104811 73 348 0.0 0.0 0.00 0.00 0.00 87 1017.1
20260901104306 72 306 0.0 0.0 0.00 0.00 0.00 86 1016.9
20260901103801 73 148 0.0 0.0 0.00 0.00 0.00 88 1017.2
20260901103255 73 269 0.0 0.0 0.00 0.00 0.00 86 1017.2
20260901102750 73 52 0.0 0.0 0.00 0.00 0.00 85 1017.2
20260901102250 73 312 0.0 0.0 0.00 0.00 0.00 85 1017.0
20260901101746 73 116 0.0 0.0 0.00 0.00 0.00 87 1017.1
20260901101245 73 128 0.0 0.0 0.00 0.00 0.00 87 1017.4
20260901100745 73 273 0.0 0.0 0.00 0.00 0.00 85 1017.1
20260901100240 73 271 0.0 0.0 0.00 0.00 0.00 85 1017.1
20260901095738 74 230 0.0 0.0 0.00 0.00 0.00 86 1017.1
20260901095236 74 199 0.0 0.0 0.00 0.00 0.00 87 1017.1
20260901094731 73 235 0.0 0.0 0.00 0.00 0.00 85 1017.1
20260901094226 74 242 0.0 0.0 0.00 0.00 0.00 86 1017.1
20260901093721 73 278 0.0 0.0 0.00 0.00 0.00 85 1017.1
20260901093220 74 118 0.0 0.0 0.00 0.00 0.00 85 1016.9
20260901092716 74 277 0.0 0.0 0.00 0.00 0.00 83 1017.1
20260901092212 74 2 0.0 0.0 0.00 0.00 0.00 84 1017.0
20260901091707 73 286 0.0 0.0 0.00 0.00 0.00 83 1016.9
20260901091202 73 321 0.0 0.0 0.00 0.00 0.00 82 1017.1
20260901090656 75 185 0.0 0.0 0.00 0.00 0.00 83 1016.7
20260901090152 75 137 0.0 0.0 0.00 0.00 0.00 84 1017.0
20260901085648 74 32 0.0 0.0 0.00 0.00 0.00 83 1016.8
20260901085143 74 302 0.0 0.0 0.00 0.00 0.00 82 1017.0
20260901084639 74 28 0.0 0.0 0.00 0.00 0.00 82 1016.9
20260901084135 75 49 0.0 0.0 0.00 0.00 0.00 84 1017.0
20260901083630 75 236 0.0 0.0 0.00 0.00 0.00 84 1016.8
20260901083128 75 304 0.0 0.0 0.00 0.00 0.00 82 1017.1
20260901082623 75 305 0.0 0.0 0.00 0.00 0.00 81 1016.8
20260901082118 75 207 0.0 0.0 0.00 0.00 0.00 81 1016.8
20260901081614 75 235 0.0 0.0 0.00 0.00 0.00 81 1017.1
20260901081114 75 199 0.0 0.0 0.00 0.00 0.00 81 1016.8
20260901080608 76 150 0.0 0.0 0.00 0.00 0.00 82 1017.0
20260901080107 75 159 0.0 0.0 0.00 0.00 0.00 78 1016.7
20260901075603 76 286 0.0 0.0 0.00 0.00 0.00 79 1016.6
20260901075102 76 133 0.0 0.0 0.00 0.00 0.00 79 1016.7
20260901074601 76 184 0.0 0.0 0.00 0.00 0.00 76 1016.6
20260901074057 76 291 1.0 1.0 0.00 0.00 0.00 74 1016.6
20260901073553 76 358 1.0 1.0 0.00 0.00 0.00 74 1016.5
20260901073048 77 247 0.0 0.0 0.00 0.00 0.00 73 1016.2
20260901072543 77 184 0.0 0.0 0.00 0.00 0.00 72 1016.5
20260901072037 77 99 0.0 0.0 0.00 0.00 0.00 71 1016.7
20260901071532 77 298 1.0 1.0 0.00 0.00 0.00 71 1016.5
20260901071030 77 209 0.0 0.0 0.00 0.00 0.00 72 1016.5
20260901070526 78 219 0.0 0.0 0.00 0.00 0.00 71 1016.5
20260901070021 79 261 0.0 0.0 0.00 0.00 0.00 71 1016.4
20260901065516 80 159 0.0 0.0 0.00 0.00 0.00 66 1016.8
20260901065010 80 5 1.0 1.0 0.00 0.00 0.00 66 1016.7
20260901064507 80 336 1.0 1.0 0.00 0.00 0.00 68 1016.3
20260901064004 80 320 1.0 1.0 0.00 0.00 0.00 66 1016.5
20260901063500 79 0 0.0 1.0 0.00 0.00 0.00 67 1016.7
20260901062955 79 357 1.0 1.0 0.00 0.00 0.00 69 1017.0
20260901062451 80 44 0.0 1.0 0.00 0.00 0.00 66 1016.7
20260901061947 80 328 0.0 1.0 0.00 0.00 0.00 70 1016.7
20260901061443 79 42 1.0 1.0 0.00 0.00 0.00 70 1016.9
20260901060942 79 302 0.0 0.0 0.00 0.00 0.00 70 1016.7
20260901060437 78 313 1.0 1.0 0.00 0.00 0.00 72 1016.9
20260901055932 78 298 1.0 1.0 0.00 0.00 0.00 72 1016.9
20260901055429 78 342 1.0 1.0 0.00 0.00 0.00 74 1016.7
20260901054925 78 358 1.0 2.0 0.00 0.00 0.00 76 1016.6
20260901054422 77 2 0.0 0.0 0.00 0.00 0.00 78 1016.7
20260901053918 78 351 0.0 0.0 0.00 0.00 0.00 78 1016.6
20260901053413 77 324 0.0 0.0 0.00 0.00 0.00 79 1016.8
20260901052908 77 351 0.0 0.0 0.00 0.00 0.00 81 1016.5
20260901052403 77 305 0.0 0.0 0.00 0.00 0.00 81 1016.5
20260901051902 77 351 0.0 1.0 0.00 0.00 0.00 80 1016.3
20260901051357 76 306 0.0 0.0 0.00 0.00 0.00 78 1016.3
20260901050852 76 272 0.0 1.0 0.00 0.00 0.00 78 1016.2
20260901050348 77 18 0.0 0.0 0.00 0.00 0.00 81 1016.2
20260901045843 77 347 0.0 0.0 0.00 0.00 0.00 80 1016.2
20260901045342 77 356 0.0 0.0 0.00 0.00 0.00 80 1016.2
20260901044838 76 321 0.0 0.0 0.00 0.00 0.00 80 1016.2
20260901044334 76 289 1.0 1.0 0.00 0.00 0.00 81 1016.2
20260901043829 77 310 0.0 0.0 0.00 0.00 0.00 82 1016.3
20260901043325 76 315 1.0 1.0 0.00 0.00 0.00 82 1016.3
20260901042824 77 8 0.0 0.0 0.00 0.00 0.00 84 1016.1
20260901042319 77 16 0.0 0.0 0.00 0.00 0.00 84 1016.1
20260901041815 77 345 0.0 0.0 0.00 0.00 0.00 83 1016.2
20260901041310 77 25 0.0 0.0 0.00 0.00 0.00 83 1016.0
20260901040804 77 353 1.0 1.0 0.00 0.00 0.00 82 1016.1
20260901040304 77 276 1.0 1.0 0.00 0.00 0.00 81 1016.1
20260901035803 77 1 0.0 0.0 0.00 0.00 0.00 82 1015.9
20260901035305 77 314 0.0 0.0 0.00 0.00 0.00 81 1015.9
20260901034801 78 307 0.0 0.0 0.00 0.00 0.00 80 1016.0
20260901034256 78 6 0.0 0.0 0.00 0.00 0.00 81 1016.2
20260901033755 78 0 0.0 0.0 0.00 0.00 0.00 80 1016.2
20260901033255 78 328 0.0 0.0 0.00 0.00 0.00 80 1016.2
20260901032753 78 314 0.0 0.0 0.00 0.00 0.00 79 1016.0
20260901032248 78 353 0.0 0.0 0.00 0.00 0.00 80 1016.4
20260901031743 78 293 0.0 0.0 0.00 0.00 0.00 79 1016.0
20260901031239 78 347 0.0 0.0 0.00 0.00 0.00 79 1016.0
20260901030733 79 283 0.0 0.0 0.00 0.00 0.00 77 1016.1
20260901030228 79 327 0.0 0.0 0.00 0.00 0.00 78 1015.9
20260901025722 79 302 0.0 0.0 0.00 0.00 0.00 77 1016.1
20260901025217 80 7 0.0 0.0 0.00 0.00 0.00 76 1015.9
20260901024712 80 326 0.0 0.0 0.00 0.00 0.00 75 1016.0
20260901024211 80 2 0.0 0.0 0.00 0.00 0.00 74 1015.9
20260901023709 81 341 0.0 0.0 0.00 0.00 0.00 73 1015.8
20260901023204 81 356 0.0 0.0 0.00 0.00 0.00 72 1015.9
20260901022700 80 308 0.0 0.0 0.00 0.00 0.00 71 1015.8
20260901022155 81 292 0.0 0.0 0.00 0.00 0.00 69 1015.7
20260901021650 82 302 0.0 0.0 0.00 0.00 0.00 69 1015.7
20260901021145 81 8 0.0 0.0 0.00 0.00 0.00 69 1015.6
20260901020641 82 294 0.0 0.0 0.00 0.00 0.00 65 1015.3
20260901020137 82 310 0.0 0.0 0.00 0.00 0.00 65 1015.3
20260901015632 83 355 0.0 0.0 0.00 0.00 0.00 66 1015.1
20260901015131 83 7 0.0 0.0 0.00 0.00 0.00 64 1015.2
20260901014626 83 276 0.0 0.0 0.00 0.00 0.00 60 1015.5
20260901014122 84 188 0.0 0.0 0.00 0.00 0.00 59 1015.2
20260901013618 84 159 0.0 0.0 0.00 0.00 0.00 61 1015.2
20260901013114 85 175 0.0 0.0 0.00 0.00 0.00 58 1015.1
20260901012613 85 210 0.0 0.0 0.00 0.00 0.00 56 1015.0
20260901012108 85 169 0.0 0.0 0.00 0.00 0.00 56 1014.7
20260901011605 85 226 0.0 0.0 0.00 0.00 0.00 52 1014.9
20260901011103 86 236 0.0 0.0 0.00 0.00 0.00 52 1014.9
20260901010558 86 230 0.0 0.0 0.00 0.00 0.00 51 1014.7
20260901010057 88 208 0.0 0.0 0.00 0.00 0.00 49 1014.8
20260901005552 88 10 0.0 0.0 0.00 0.00 0.00 48 1014.6
20260901005047 89 319 0.0 0.0 0.00 0.00 0.00 48 1014.6
20260901004546 89 1 0.0 0.0 0.00 0.00 0.00 48 1014.7
20260901004041 91 333 0.0 0.0 0.00 0.00 0.00 45 1014.5
20260901003536 91 31 0.0 0.0 0.00 0.00 0.00 44 1014.6
20260901003034 91 30 1.0 1.0 0.00 0.00 0.00 44 1014.6
20260901002534 92 352 1.0 1.0 0.00 0.00 0.00 45 1014.6
20260901002029 93 213 0.0 1.0 0.00 0.00 0.00 44 1014.4
20260901001524 93 336 1.0 1.0 0.00 0.00 0.00 43 1014.5
20260901001019 95 195 0.0 0.0 0.00 0.00 0.00 43 1014.3
20260901000514 95 154 1.0 2.0 0.00 0.00 0.00 40 1014.6
20260901000010 96 106 1.0 1.0 0.00 0.00 0.00 39 1014.5
20260831235503 97 122 1.0 1.0 0.00 0.00 0.00 38 1014.4
20260831234959 97 115 3.0 3.0 0.00 0.00 0.00 37 1014.7
20260831234453 98 147 2.0 2.0 0.00 0.00 0.00 34 1014.4
20260831233948 98 153 3.0 3.0 0.00 0.00 0.00 34 1014.5
20260831233443 98 144 1.0 1.0 0.00 0.00 0.00 34 1014.5
20260831232939 98 139 1.0 2.0 0.00 0.00 0.00 35 1014.3
20260831232435 98 139 3.0 3.0 0.00 0.00 0.00 34 1014.5
20260831231930 99 139 3.0 3.0 0.00 0.00 0.00 34 1014.4
20260831231426 99 153 2.0 2.0 0.00 0.00 0.00 31 1014.3
20260831230922 99 141 3.0 3.0 0.00 0.00 0.00 31 1014.5
20260831230417 99 160 3.0 3.0 0.00 0.00 0.00 33 1014.4
20260831225911 100 162 2.0 3.0 0.00 0.00 0.00 30 1014.4
20260831225407 100 137 2.0 2.0 0.00 0.00 0.00 31 1014.3
20260831224901 100 144 2.0 2.0 0.00 0.00 0.00 31 1014.2
20260831224401 100 144 2.0 2.0 0.00 0.00 0.00 35 1014.3
20260831223856 100 161 3.0 3.0 0.00 0.00 0.00 32 1014.6
20260831223352 101 115 5.0 7.0 0.00 0.00 0.00 32 1014.3
20260831222849 101 104 1.0 2.0 0.00 0.00 0.00 30 1014.4
20260831222344 101 175 3.0 3.0 0.00 0.00 0.00 29 1014.6